HST 1 20580U 90037B 25124.85649720 .00008496 00000-0 32406-3 0 9994 2 20580 28.4688 338.5262 0002176 339.4973 20.5534 15.24835573726328 ISS (ZARYA) 1 25544U 98067A 25125.18896867 .00008639 00000-0 16281-3 0 9995 2 25544 51.6348 160.0455 0002288 80.6014 279.5233 15.49349232508498 CXO 1 25867U 99040B 25127.12296567 .00000591 00000-0 00000+0 0 9999 2 25867 48.6570 131.6032 8487592 308.9148 359.7795 0.37811089 26945